sat.trackr.live / text

‹ back to catalog

STARLINK-35295

NORAD 66070 · 2025-235N

PAYLOAD ACTIVE UNKNOWN

§ Identity

Operator
Country
US
Launch date
2025-10-19
Launch site
AFETR
Launch vehicle
Mass (kg)
RCS (m²)

Purposes: comms

External: N2YO · Heavens-Above · Gunter

§ Orbital elements

Epoch: 2026-09-19T17:04:18.937056Z

Period
93.85 min
Inclination
53.1610°
Eccentricity
0.0000795
Mean motion
15.34429393 rev/d
Perigee alt
462.1 km
Apogee alt
463.2 km
Semi-major
6,840.8 km
B*
6.4216e-4
RAAN
63.5915°
Arg perigee
63.6690°
Mean anomaly
296.4395°
Rev number
5,263

§ Raw data

STARLINK-352951 66070U 25235N   26262.71133029  .00021402  00000+0  64216-3 0  99902 66070  53.1610  63.5915 0000795  63.6690 296.4395 15.34429393 52634

JSON: /api/v1/satellites/66070 · /tle

For live sub-satellite position, see the globe view (requires WebGL).

§ Visibility from observer

Set your observer location to see the next 7 days of passes ≥ 10°. The values pass through the URL so the page stays shareable.

No JS? Fill the form by hand. The geolocation button needs JavaScript.